STARLINK-36749

Last updated on Sat Mar 14 2026 00:02:06 GMT+0000 (Coordinated Universal Time)

1 67734U 26026P 26072.58334491 -.01791168 00000+0 -49115-1 0 9992 2 67734 97.2853 127.1157 0001768 92.2155 187.1621 15.40422706 5948

Satellite not in orbit